CAPE
18 12 9 3 1 3 0 0 1 0 0 0 0 0 0 0 0 0 0 0 0 0 0 0 0 0 0 0 1 4 14 27 41 39 53 97 126 191
28 23 6 1 0 2 0 0 0 17 15 0 0 0 0 0 0 0 0 0 0 0 0 0 0 1 1 3 4 6 8 9 13 17 24 30 66 102
15 9 6 2 3 0 0 0 1 0 12 2 0 0 0 0 0 0 1 1 4 1 1 2 2 2 1 1 2 4 5 7 8 9 6 6 6 6
11 1 5 0 0 0 0 0 0 0 3 2 0 0 0 0 1 1 0 0 4 3 0 1 0 0 3 0 4 4 3 4 6 7 8 9 9 11
0 1 0 0 0 0 0 0 0 0 0 0 1 0 1 0 0 1 0 0 4 0 0 0 0 0 0 1 3 2 3 5 7 7 8 10 14 17
0 0 0 0 0 0 0 0 0 0 0 0 0 1 1 2 1 1 0 0 3 0 0 0 0 0 0 0 0 0 0 4 10 9 4 3 6 12
0 0 0 0 0 0 0 0 0 0 0 0 0 0 1 1 1 1 0 0 2 0 0 0 0 0 0 0 0 0 0 4 1 0 0 0 0 0
0 0 0 1 1 1 1 1 0 0 0 0 1 1 2 2 0 0 0 0 0 0 0 0 0 0 0 0 0 0 0 1 1 1 0 0 0 0
0 0 0 2 1 0 2 2 2 0 0 0 0 1 1 2 0 0 0 0 0 0 0 0 0 0 0 0 0 1 0 0 0 0 0 1 1 2
0 0 0 0 1 0 0 0 2 2 2 3 2 2 1 0 0 0 0 0 0 0 0 0 0 0 0 0 0 0 0 0 0 2 1 0 0 3
0 0 0 1 3 2 0 1 2 4 8 9 6 3 1 0 0 0 0 0 0 0 0 0 0 0 0 0 0 0 0 0 0 0 0 0 2 5
0 0 1 1 3 1 0 1 2 3 1 0 0 0 0 0 0 0 0 0 0 0 0 0 0 0 0 0 0 0 0 0 0 0 0 2 8 0
1 1 3 5 7 7 3 1 2 1 1 0 0 0 0 0 0 0 0 0 0 0 0 0 0 0 0 0 0 0 0 0 0 0 3 10 2 5
2 2 4 8 7 5 2 4 2 0 2 0 0 0 0 0 0 0 0 0 0 0 0 0 0 0 0 0 0 0 0 0 0 0 3 0 3 6
1 6 11 10 5 5 4 2 0 1 1 0 0 0 0 0 0 0 0 0 0 0 0 0 0 0 0 0 1 0 0 0 0 0 0 3 3 1
0 0 1 3 0 1 5 3 1 0 0 0 0 0 0 0 0 0 0 0 0 0 0 0 0 1 0 0 1 0 0 0 0 0 4 2 3 2
0 1 1 1 1 1 1 0 0 0 0 0 0 0 0 0 0 0 0 0 0 0 0 0 0 0 0 0 0 0 0 0 0 1 4 4 3 3
0 0 0 0 0 0 0 0 0 0 0 0 0 0 0 0 0 0 0 0 0 0 0 0 0 0 0 0 0 0 0 0 0 4 9 7 2 0
0 0 0 0 0 0 0 0 0 0 0 0 0 0 0 0 0 0 0 0 0 0 0 0 0 0 0 0 0 0 0 1 2 2 3 3 4 0
0 0 0 0 0 0 0 0 0 0 0 0 0 0 0 0 0 0 0 0 0 0 0 0 0 0 0 0 0 0 1 2 2 0 0 0 0 1
0 0 0 0 0 0 0 0 0 0 0 0 0 0 0 0 0 0 0 0 0 0 0 0 0 2 0 0 0 0 0 0 5 4 0 0 0 0
0 0 0 0 0 0 0 0 0 0 0 0 0 0 0 0 0 0 0 0 0 0 0 0 0 0 0 0 0 0 0 0 0 1 3 4 0 0
0 0 0 0 0 0 0 0 0 0 0 0 0 0 0 0 0 0 0 0 0 0 0 0 0 0 0 0 0 0 0 0 0 0 0 1 0 1
CIN
-86 -109 -121 -137 -160 -155 -74 0 -62 -31 0 0 0 0 0 0 0 0 0 0 0 0 0 0 0 0 0 -1 -1 0 0 0 0 -5 -5 0 0 -1
-60 -74 -92 -135 -70 -106 0 0 0 -75 -30 0 0 0 0 0 0 0 0 0 0 0 0 0 0 0 0 0 0 0 0 0 0 0 0 0 0 -2
-43 -74 -87 -125 -98 0 0 0 -128 -83 -33 -81 0 0 0 0 0 0 0 0 0 0 0 0 0 0 0 0 0 0 0 0 0 0 0 0 0 0
-51 -83 -81 -2 0 -6 0 0 0 0 -19 -8 0 0 0 0 0 0 0 0 0 0 0 0 0 0 0 0 0 0 0 0 0 0 0 0 0 0
0 -84 -27 0 -63 -41 0 0 0 0 0 0 0 0 0 0 0 0 0 0 0 0 0 0 0 0 0 0 0 0 0 0 0 0 0 0 0 0
0 0 0 0 0 0 0 0 0 0 0 0 0 0 0 0 0 0 0 0 0 0 0 0 0 0 0 0 0 0 0 0 0 0 0 0 0 0
0 0 0 0 0 0 0 0 0 0 0 0 0 0 0 0 0 0 0 0 0 0 0 0 0 0 0 0 0 0 0 0 0 0 0 0 0 0
0 0 0 0 0 0 0 0 0 0 0 0 0 0 0 0 0 0 0 0 0 0 0 0 0 0 0 0 0 0 0 0 0 0 0 0 0 0
0 0 0 0 0 0 0 0 0 0 0 0 0 0 0 0 0 0 0 0 0 0 0 0 0 0 0 0 0 0 0 0 0 0 0 0 0 0
0 0 0 0 0 0 0 0 0 0 0 0 0 0 0 0 0 0 0 0 0 0 0 0 0 0 0 0 0 0 0 0 0 0 0 0 0 0
0 0 0 0 0 0 0 0 0 0 0 0 0 0 0 0 0 0 0 0 0 0 0 0 0 0 0 0 0 0 0 0 0 0 0 0 0 0
0 0 0 0 0 0 0 0 0 0 0 0 0 0 0 0 0 0 0 0 0 0 0 0 0 0 0 0 0 0 0 0 0 0 0 0 0 0
0 0 0 0 0 0 0 0 0 0 0 0 0 0 0 0 0 0 0 0 0 0 0 0 0 0 0 0 0 0 0 0 0 0 0 0 0 0
0 0 0 0 0 0 0 0 0 0 0 0 0 0 0 0 0 0 0 0 0 0 0 0 0 0 0 0 0 0 0 0 0 0 0 0 0 0
0 0 0 0 0 0 0 0 0 0 0 0 0 0 0 0 0 0 0 0 0 0 0 0 0 0 0 -1 0 0 0 0 0 0 0 -1 -1 -1
0 0 0 0 0 0 0 0 0 0 0 0 0 0 0 0 0 0 0 0 0 0 0 0 0 0 0 0 0 0 0 -1 0 -1 0 0 0 -1
0 0 0 0 0 0 0 0 0 0 0 0 0 0 0 0 0 0 0 0 0 0 0 0 0 0 0 0 0 0 0 0 0 -1 0 0 0 -1
0 0 0 0 0 0 0 0 0 0 0 0 0 0 0 0 0 0 0 0 0 0 0 0 0 0 0 0 0 0 0 0 0 0 0 0 0 0
0 0 0 0 0 0 0 0 0 0 0 0 0 0 0 0 0 0 0 0 0 0 0 0 0 0 0 0 0 0 0 0 0 0 0 0 0 0
0 0 0 0 0 0 0 0 0 0 0 0 0 0 0 0 0 0 0 0 0 0 0 0 0 0 0 0 -1 0 0 0 0 -1 -2 -1 -1 0
0 0 0 0 0 0 0 0 0 0 0 0 0 0 0 0 0 0 0 0 0 0 0 0 0 0 0 0 0 0 0 0 0 0 -1 0 0 0
0 0 0 0 0 0 0 0 0 0 0 0 0 0 0 0 0 0 0 0 0 0 0 0 0 0 0 0 0 0 0 0 0 0 0 0 0 0
0 0 0 0 0 0 0 0 0 0 0 0 0 0 0 0 0 0 0 0 0 0 0 0 0 0 0 0 0 0 0 0 0 0 0 0 0 0
Wind_Speed
4 3 4 3 4 4 3 4 5 3 4 3 4 6 5 4 8 6 4 6 8 9 10 11 12 13 15 16 18 22 25 25 30 28 32 31 30 30
5 6 5 3 4 3 4 5 5 5 6 5 6 5 3 3 6 2 5 10 13 12 13 13 12 13 14 14 15 16 17 18 20 22 23 24 27 31
9 8 7 5 5 5 6 5 5 5 7 8 2 3 4 5 5 6 8 7 7 18 17 17 18 19 19 18 18 18 18 18 18 17 17 16 16 18
9 6 8 4 7 6 5 7 6 6 7 12 2 4 5 3 5 7 6 6 7 13 16 17 18 17 16 17 18 19 19 20 21 21 19 19 19 19
8 8 9 7 11 7 4 4 3 2 3 5 2 2 3 3 4 5 6 6 5 14 13 16 15 16 16 15 18 19 19 19 18 19 19 20 20 22
3 4 3 2 4 3 3 3 2 2 1 3 3 3 4 4 4 3 3 3 4 7 8 10 11 14 16 18 20 21 21 20 17 18 20 21 22 22
5 6 6 7 7 4 3 2 3 3 3 3 3 2 3 3 4 4 2 2 5 5 4 5 5 6 9 13 15 22 19 16 18 20 21 21 21 21
9 9 10 13 17 21 23 23 12 4 5 3 5 6 8 4 4 4 4 4 3 8 6 4 4 5 6 6 20 18 16 18 20 22 24 25 25 24
10 10 9 8 12 13 21 25 25 26 16 8 9 6 5 6 3 4 4 3 3 5 5 3 4 5 7 9 18 14 18 22 23 24 23 23 25 26
10 11 12 11 10 12 14 15 15 13 12 11 12 11 11 8 7 6 6 5 3 5 8 3 4 6 6 7 11 17 21 23 24 23 27 27 27 27
10 11 12 12 16 18 14 16 15 14 19 24 21 22 21 21 15 6 9 7 3 3 7 5 5 8 5 3 6 21 20 25 23 28 27 27 27 27
14 14 22 16 19 17 11 9 12 10 9 10 8 12 16 13 16 11 6 5 3 4 7 7 7 8 5 3 9 7 9 18 25 27 27 26 25 12
12 11 10 22 23 24 20 12 12 9 11 9 8 7 8 8 7 7 7 6 4 3 7 4 5 6 3 8 6 8 6 9 10 13 21 18 26 25
15 12 15 23 24 24 17 22 19 11 8 6 7 7 6 6 7 7 7 7 5 5 7 6 2 7 7 9 9 8 11 9 9 11 7 18 24 24
11 20 27 26 22 18 23 20 13 7 7 6 6 6 5 6 7 7 6 8 7 7 8 7 6 8 6 8 11 13 14 10 9 6 12 11 12 12
17 14 15 15 15 13 11 11 7 6 7 6 5 4 5 5 5 6 5 6 5 5 9 10 10 10 9 8 10 14 11 9 13 12 13 13 11 11
13 10 9 8 8 8 8 7 6 6 7 6 5 5 5 5 4 4 4 4 4 6 8 8 11 11 10 12 12 11 12 12 10 12 15 15 12 12
11 8 7 7 7 7 6 7 6 6 6 6 6 6 4 4 4 4 4 4 6 6 7 8 10 10 8 6 14 11 11 12 12 14 14 13 16 13
10 8 6 5 5 6 6 6 6 5 7 6 6 5 5 4 5 4 4 4 5 6 7 7 8 9 13 14 8 12 12 14 14 12 11 11 15 16
9 8 6 5 6 5 5 5 5 5 5 5 5 3 3 2 3 5 5 5 7 8 8 7 7 7 9 10 15 19 22 14 12 14 14 12 13 28
7 7 6 5 5 5 4 4 5 4 2 2 3 3 3 2 2 3 4 7 7 6 8 9 9 15 10 11 10 13 13 20 20 15 14 11 10 6
6 6 6 5 5 5 4 3 3 3 3 3 1 1 2 1 2 3 3 5 6 6 8 8 10 9 9 10 13 17 15 17 22 21 18 15 4 4
5 5 5 4 4 3 3 4 4 2 2 1 1 2 2 2 3 3 4 5 6 7 8 9 9 8 9 9 13 13 20 18 13 14 8 11 4 11
Wind_Direction
213 219 229 203 191 209 222 149 202 238 262 267 246 226 230 218 237 243 260 310 314 319 331 321 313 306 297 293 290 285 279 274 269 271 268 260 259 265
224 213 223 220 214 214 210 218 206 217 254 197 233 234 241 287 21 6 33 88 67 41 38 36 28 19 6 353 339 328 318 313 306 299 292 284 276 268
221 207 231 222 246 231 220 221 218 207 244 276 209 38 52 43 44 50 46 34 58 60 56 49 45 41 33 28 21 14 4 356 350 354 357 347 339 340
211 204 233 211 233 243 220 222 221 217 236 254 296 49 62 39 65 52 50 44 71 59 51 42 38 33 32 25 20 20 16 13 7 0 350 343 340 331
200 206 232 233 242 239 223 242 236 246 227 239 149 85 79 11 49 45 66 20 37 50 39 27 26 28 27 26 29 21 11 3 359 353 349 344 340 334
150 114 111 236 247 237 231 204 194 161 126 107 76 77 36 28 66 23 24 25 47 25 28 21 22 27 30 31 15 7 360 359 2 14 3 353 348 348
98 89 75 78 75 86 140 108 141 121 104 84 89 76 50 40 35 356 3 278 117 41 7 2 30 30 25 8 358 348 344 3 357 351 347 343 335 332
129 113 103 87 78 79 80 71 57 102 107 103 71 73 68 74 40 4 341 345 353 35 14 348 44 38 11 351 343 341 350 352 346 341 334 329 327 324
128 122 109 96 85 81 70 67 62 63 56 71 91 85 70 36 23 48 13 358 352 11 1 299 33 7 348 334 333 357 352 343 338 333 331 330 328 322
115 118 116 104 97 101 93 87 81 69 67 74 64 57 67 49 42 17 40 352 317 63 9 312 354 344 327 309 341 354 344 341 335 333 329 321 317 314
94 102 105 100 104 106 98 100 92 83 74 75 81 83 62 54 50 35 26 19 329 360 24 328 356 328 311 312 1 344 338 332 327 327 323 321 321 319
95 89 93 100 102 95 93 85 89 78 82 71 50 53 64 52 47 52 39 36 349 314 17 342 348 352 328 306 345 314 327 320 323 319 318 318 323 326
101 100 92 94 92 89 83 84 82 80 67 67 64 50 46 48 40 39 44 33 345 320 336 6 329 342 293 314 316 303 299 309 302 298 302 315 315 314
108 105 100 98 97 92 87 87 84 86 90 80 73 51 31 36 35 25 25 16 345 338 331 354 311 323 309 307 303 312 306 305 298 298 303 311 304 304
90 105 103 98 86 81 87 86 86 92 85 75 65 67 50 30 29 15 11 2 350 343 347 349 326 315 310 300 301 309 312 313 296 311 300 299 301 299
99 97 93 91 86 77 73 73 74 78 85 98 82 58 42 36 18 4 353 354 344 331 341 340 332 323 310 302 303 299 303 301 308 306 303 300 295 290
105 101 104 99 94 93 95 90 86 81 76 69 65 55 42 31 9 0 348 345 334 330 330 329 326 319 304 302 297 289 300 300 299 304 305 300 298 292
94 90 89 87 98 100 96 90 73 74 75 73 62 56 35 26 356 351 344 344 333 326 321 323 325 324 312 291 268 291 301 294 305 302 299 298 297 293
94 95 92 95 97 97 93 92 85 69 75 70 70 46 24 11 352 342 337 332 324 318 322 319 322 331 330 321 283 287 309 301 302 300 300 292 293 298
94 106 107 97 94 92 97 93 89 76 71 76 67 55 14 359 359 355 332 323 328 326 316 318 325 333 324 305 304 301 304 304 303 301 300 293 284 287
95 91 85 86 86 87 83 78 84 83 84 84 55 47 7 4 326 307 327 331 312 317 320 320 319 312 299 296 300 304 307 309 303 298 297 294 302 300
87 90 85 84 95 101 94 108 104 92 82 70 53 24 353 302 321 320 318 312 316 316 308 309 317 319 320 317 311 311 311 318 320 320 299 259 251 305
78 86 91 98 93 95 110 88 83 75 83 120 30 7 0 351 317 298 298 305 309 317 322 320 321 324 321 317 312 312 316 321 326 327 336 39 316 254